AirNav   TITAN Aviation Fuels
 
 1110 users online  

VA99 Federhart-Ophelia Airport
Reedville, Virginia, USA

GOING TO REEDVILLE?


FAA INFORMATION EFFECTIVE 15 JULY 2021

Location

FAA Identifier: VA99
Lat/Long: 37-54-19.3500N 076-17-26.1500W
37-54.322500N 076-17.435833W
37.9053750,-76.2905972
(estimated)
Elevation: 13 ft. / 4 m (estimated)
Variation: 10W (1985)
From city: 4 miles N of REEDVILLE, VA
Time zone: UTC -4 (UTC -5 during Standard Time)
Zip code: 22473

Airport Operations

Airport use: Private use. Permission required prior to landing
Activation date: 02/1972
Control tower: no
ARTCC: WASHINGTON CENTER
FSS: LEESBURG FLIGHT SERVICE STATION
Attendance: UNATNDD
Wind indicator: yes
Segmented circle: no

Airport Communications

WX AWOS-3 at TGI (15 nm E): 119.8 (757-891-2246)
WX AWOS-3 at W75 (20 nm S): 118.45 (804-758-8592)

Nearby radio navigation aids

VOR radial/distance  VOR name  Freq  Var
PXTr177/23.5PATUXENT VORTAC117.6010W
HCMr043/33.9HARCUM VORTAC108.8007W
CCVr347/36.2CAPE CHARLES VORTAC112.2010W

 
NDB name  Hdg/Dist  Freq  Var  ID
PATUXENT177/23.440010WNHK -. .... -.-

Airport Services

Airframe service: NONE
Powerplant service: NONE

Runway Information

Runway 1/19

Dimensions: 2200 x 60 ft. / 671 x 18 m
Surface: turf, in good condition
RUNWAY 1  RUNWAY 19
Latitude: 37-54.141667N37-54.503333N
Longitude: 076-17.451667W076-17.420000W
Elevation: 13.0 ft.13.0 ft.
Traffic pattern: leftleft
Obstructions: 60 ft. trees, 150 ft. from runway
AND PLINE
70 ft. trees, 450 ft. from runway

Airport Ownership and Management from official FAA records

Ownership: Privately-owned
Owner: OPHELIA AIRSTRIP, LLC
C/O TRISTRAM HYDE, 278 TOLSTOY LANE
SEVERNA PARK, MD 21146-0247
Phone 240-278-0829
Manager: TRISTRAM HYDE
278 TOLSTOY LANE, 375 AIRSTRIP LANE
SEVERNA PARK, MD 21146-0247
Phone 240-278-0829

Airport Operational Statistics

Aircraft based on the field: 8
Single engine airplanes: 8
    
Aircraft operations: 125/year *
100% local general aviation
* for 12-month period ending 31 December 2020

Additional Remarks

DESIGNATED VA99.
FOR CD CTC WASHINGTON ARTCC AT 703-771-3587.
VFR DAY USE ONLY

Instrument Procedures

There are no published instrument procedures at VA99.

Some nearby airports with instrument procedures:

KTGI - Tangier Island Airport (15 nm E)
W75 - Hummel Field Airport (20 nm S)
W41 - Crisfield-Somerset County Airport (23 nm E)
KNHK - Patuxent River Naval Air Station (Trapnell Field) (24 nm N)
2W6 - St Mary's County Regional Airport (27 nm NW)
 
Loc | Ops | Rwys | IFR | FBO | Links
Com | Nav | Svcs | Stats | Notes
Area around VA99 (Federhart-Ophelia Airport)
 
Road maps at: MapQuest Bing Google
 
Aerial photo
WARNING: Photo may not be current or correct
Aerial photo of VA99 (Federhart-Ophelia Airport)
Photo taken 27-Mar-2006

Do you have a better or more recent aerial photo of Federhart-Ophelia Airport that you would like to share? If so, please send us your photo.

 
Sectional chart

 
Airport distance calculator
Flying to Federhart-Ophelia Airport? Find the distance to fly.

From to VA99

Sunrise and sunset
Times for 03-Aug-2021
 Local
(UTC-4)
 Zulu
(UTC)
Morning civil twilight05:4209:42
Sunrise06:1110:11
Sunset20:1200:12
Evening civil twilight20:4100:41

Current date and time
Zulu (UTC)  04-Aug-2021 01:50:49
Local (UTC-4)  03-Aug-2021 21:50:49
 
METAR
KTGI 
15nm E 
040135Z AUTO 08008KT 10SM BKN021 BKN028 BKN034 23/19 A3007 RMK AO1 T02330194
KNUI 
16nm NW 
040053Z AUTO 10003KT 10SM CLR 22/18 A3006 RMK AO2 SLP179 T02170178
KW75 
20nm S 
040135Z AUTO 09003KT 10SM SCT030 SCT036 SCT120 23/17 A3007 RMK AO1 T02270169
KNHK 
22nm N 
040052Z 08007KT 10SM SCT035 BKN160 BKN250 23/17 A3007 RMK AO2 SLP182 T02330167
K2W6 
27nm NW 
040135Z AUTO 00000KT 10SM SCT034 18/16 A3011 RMK AO1
KXSA 
29nm W 
040135Z AUTO 00000KT 10SM CLR 19/19 A3010 RMK AO2 T01920192
TAF
KNHK 
22nm N 
0323/0423 08006KT 9999 FEW040 BKN160 BKN250 QNH3002INS BECMG 0410/0412 05012G18KT 9999 SCT030 SCT180 BKN300 QNH3005INS BECMG 0416/0418 06014G20KT 9999 FEW025 BKN040 QNH3000INS AUTOMATED SENSOR METWATCH 0403 TIL 0408 T19/0409Z T27/0421Z FN00067
NOTAMs
Click for the latest NOTAMs
NOTAMs are issued by the DoD/FAA and will open in a separate window not controlled by AirNav.

 

 
 

Would you like to see your business listed on this page?

 If your business provides an interesting product or service to pilots, flight crews, aircraft, or users of the Federhart-Ophelia Airport, you should consider listing it here.  To start the listing process, click on the button below
 
Add a business
 

Other Pages about Federhart-Ophelia Airport

Update a link
 
Copyright © AirNav, LLC. All rights reserved. Privacy Policy  Contact